Time,TemperatureF,DewpointF,PressureIn,WindDirection,WindDirectionDegrees,WindSpeedMPH,WindSpeedGustMPH,Humidity,HourlyPrecipIn,Conditions,Clouds,dailyrainin,SoftwareType,DateUTC
2013-03-06 00:00:00,26.6,26.6,29.88,NNW,332,3.0,7.0,100,0.00,,,0.00,Wunderground v.1.15,2013-03-06 05:00:00,
2013-03-06 00:01:00,26.6,26.6,29.88,North,353,3.0,17.0,100,0.00,,,0.00,Wunderground v.1.15,2013-03-06 05:01:00,
2013-03-06 00:02:00,26.6,26.6,29.88,NNW,335,3.0,17.0,100,0.00,,,0.00,Wunderground v.1.15,2013-03-06 05:02:00,
2013-03-06 00:03:00,26.6,26.6,29.88,NNE,14,4.0,17.0,100,0.00,,,0.00,Wunderground v.1.15,2013-03-06 05:03:00,
2013-03-06 00:08:00,26.6,26.6,29.88,North,349,4.0,17.0,100,0.00,,,0.00,Wunderground v.1.15,2013-03-06 05:08:00,
2013-03-06 00:14:00,26.6,26.6,29.88,NW,309,5.0,6.0,100,0.00,,,0.00,Wunderground v.1.15,2013-03-06 05:14:00,
2013-03-06 00:20:00,26.6,26.6,29.88,NNE,13,5.0,7.0,100,0.00,,,0.00,Wunderground v.1.15,2013-03-06 05:20:00,
2013-03-06 00:25:00,26.7,26.7,29.88,NNW,340,5.0,14.0,100,0.00,,,0.00,Wunderground v.1.15,2013-03-06 05:25:00,
2013-03-06 00:31:00,26.6,26.6,29.88,NNW,346,4.0,5.0,100,0.00,,,0.00,Wunderground v.1.15,2013-03-06 05:31:00,
2013-03-06 00:36:00,26.6,26.6,29.88,NNE,24,3.0,6.0,100,0.00,,,0.00,Wunderground v.1.15,2013-03-06 05:36:00,
2013-03-06 00:42:00,26.6,26.6,29.88,NNW,339,3.0,3.0,100,0.00,,,0.00,Wunderground v.1.15,2013-03-06 05:42:00,
2013-03-06 00:48:00,26.4,26.4,29.89,North,8,3.0,8.0,100,0.00,,,0.00,Wunderground v.1.15,2013-03-06 05:48:00,
2013-03-06 00:53:00,26.4,26.4,29.89,North,6,3.0,3.0,100,0.00,,,0.00,Wunderground v.1.15,2013-03-06 05:53:00,
2013-03-06 00:59:00,26.4,26.4,29.89,North,6,2.0,4.0,100,0.00,,,0.00,Wunderground v.1.15,2013-03-06 05:59:00,
2013-03-06 01:04:00,26.4,26.4,29.89,North,0,3.0,14.0,100,0.00,,,0.00,Wunderground v.1.15,2013-03-06 06:04:00,
2013-03-06 01:10:00,26.6,26.6,29.89,North,356,3.0,4.0,100,0.00,,,0.00,Wunderground v.1.15,2013-03-06 06:10:00,
2013-03-06 01:16:00,26.6,26.6,29.90,NNE,31,5.0,11.0,100,0.00,,,0.00,Wunderground v.1.15,2013-03-06 06:16:00,
2013-03-06 01:21:00,26.6,26.6,29.90,NNW,336,4.0,5.0,100,0.00,,,0.00,Wunderground v.1.15,2013-03-06 06:21:00,
2013-03-06 01:27:00,26.6,26.6,29.90,North,350,2.0,5.0,100,0.00,,,0.00,Wunderground v.1.15,2013-03-06 06:27:00,
2013-03-06 01:33:00,26.7,26.7,29.90,North,0,5.0,10.0,100,0.00,,,0.00,Wunderground v.1.15,2013-03-06 06:33:00,
2013-03-06 01:39:00,26.6,26.6,29.90,North,0,5.0,10.0,100,0.00,,,0.00,Wunderground v.1.15,2013-03-06 06:39:00,
2013-03-06 01:44:00,26.7,26.7,29.90,NW,318,3.0,4.0,100,0.00,,,0.00,Wunderground v.1.15,2013-03-06 06:44:00,
2013-03-06 01:50:00,26.7,26.7,29.91,NW,311,3.0,7.0,100,0.00,,,0.00,Wunderground v.1.15,2013-03-06 06:50:00,
2013-03-06 01:55:00,26.7,26.7,29.91,NNW,336,4.0,7.0,100,0.00,,,0.00,Wunderground v.1.15,2013-03-06 06:55:00,
2013-03-06 02:01:00,26.7,26.7,29.91,NW,316,3.0,5.0,100,0.00,,,0.00,Wunderground v.1.15,2013-03-06 07:01:00,
2013-03-06 02:06:00,26.7,26.7,29.91,NW,305,3.0,12.0,100,0.00,,,0.00,Wunderground v.1.15,2013-03-06 07:06:00,
2013-03-06 02:12:00,26.7,26.7,29.91,NW,318,3.0,5.0,100,0.00,,,0.00,Wunderground v.1.15,2013-03-06 07:12:00,
2013-03-06 02:17:00,26.7,26.7,29.92,NW,308,3.0,5.0,100,0.00,,,0.00,Wunderground v.1.15,2013-03-06 07:17:00,
2013-03-06 02:23:00,26.7,26.7,29.92,NW,315,3.0,6.0,100,0.00,,,0.00,Wunderground v.1.15,2013-03-06 07:23:00,
2013-03-06 02:29:00,26.7,26.7,29.92,NNW,332,4.0,6.0,100,0.00,,,0.00,Wunderground v.1.15,2013-03-06 07:29:00,
2013-03-06 02:34:00,26.7,26.7,29.92,North,354,4.0,4.0,100,0.00,,,0.00,Wunderground v.1.15,2013-03-06 07:34:00,
2013-03-06 02:39:00,26.9,26.9,29.92,North,350,3.0,10.0,100,0.00,,,0.00,Wunderground v.1.15,2013-03-06 07:39:00,
2013-03-06 02:45:00,26.9,26.9,29.92,WNW,298,4.0,11.0,100,0.00,,,0.00,Wunderground v.1.15,2013-03-06 07:45:00,
2013-03-06 02:50:00,26.9,26.9,29.92,NW,304,5.0,5.0,100,0.00,,,0.00,Wunderground v.1.15,2013-03-06 07:50:00,
2013-03-06 02:56:00,26.9,26.9,29.92,West,277,4.0,5.0,100,0.00,,,0.00,Wunderground v.1.15,2013-03-06 07:56:00,
2013-03-06 03:02:00,26.9,26.9,29.92,WNW,285,3.0,14.0,100,0.00,,,0.00,Wunderground v.1.15,2013-03-06 08:02:00,
2013-03-06 03:07:00,26.9,26.9,29.92,NNW,332,3.0,14.0,100,0.00,,,0.00,Wunderground v.1.15,2013-03-06 08:07:00,
2013-03-06 03:12:00,26.9,26.9,29.92,NW,315,3.0,3.0,100,0.00,,,0.00,Wunderground v.1.15,2013-03-06 08:12:00,
2013-03-06 03:17:00,26.9,26.9,29.93,WNW,289,3.0,4.0,100,0.00,,,0.00,Wunderground v.1.15,2013-03-06 08:17:00,
2013-03-06 03:22:00,26.9,26.9,29.93,WNW,285,3.0,5.0,100,0.00,,,0.00,Wunderground v.1.15,2013-03-06 08:22:00,
2013-03-06 03:28:00,27.0,27.0,29.93,West,267,3.0,6.0,100,0.00,,,0.00,Wunderground v.1.15,2013-03-06 08:28:00,
2013-03-06 03:34:00,27.0,27.0,29.93,NW,304,3.0,5.0,100,0.00,,,0.00,Wunderground v.1.15,2013-03-06 08:34:00,
2013-03-06 03:39:00,27.0,27.0,29.93,WNW,291,2.0,5.0,100,0.00,,,0.00,Wunderground v.1.15,2013-03-06 08:39:00,
2013-03-06 03:44:00,27.2,27.2,29.93,WNW,291,3.0,5.0,100,0.00,,,0.00,Wunderground v.1.15,2013-03-06 08:44:00,
2013-03-06 03:49:00,27.2,27.2,29.94,West,264,3.0,5.0,100,0.00,,,0.00,Wunderground v.1.15,2013-03-06 08:49:00,
2013-03-06 03:55:00,27.2,27.2,29.94,NW,304,3.0,7.0,100,0.00,,,0.00,Wunderground v.1.15,2013-03-06 08:55:00,
2013-03-06 04:00:00,27.3,27.3,29.94,West,264,3.0,3.0,100,0.00,,,0.00,Wunderground v.1.15,2013-03-06 09:00:00,
2013-03-06 04:05:00,27.3,27.3,29.94,WNW,301,2.0,12.0,100,0.00,,,0.00,Wunderground v.1.15,2013-03-06 09:05:00,
2013-03-06 04:11:00,27.5,27.5,29.94,West,278,2.0,5.0,100,0.00,,,0.00,Wunderground v.1.15,2013-03-06 09:11:00,
2013-03-06 04:16:00,27.5,27.5,29.95,WNW,288,3.0,5.0,100,0.00,,,0.00,Wunderground v.1.15,2013-03-06 09:16:00,
2013-03-06 04:21:00,27.5,27.5,29.95,WNW,288,3.0,4.0,100,0.00,,,0.00,Wunderground v.1.15,2013-03-06 09:21:00,
2013-03-06 04:27:00,27.6,27.6,29.95,WNW,294,4.0,6.0,100,0.00,,,0.00,Wunderground v.1.15,2013-03-06 09:27:00,
2013-03-06 04:32:00,27.6,27.6,29.95,NW,319,4.0,6.0,100,0.00,,,0.00,Wunderground v.1.15,2013-03-06 09:32:00,
2013-03-06 04:39:00,27.6,27.6,29.95,NW,309,3.0,6.0,100,0.00,,,0.00,Wunderground v.1.15,2013-03-06 09:39:00,
2013-03-06 04:44:00,27.8,27.8,29.95,West,281,3.0,9.0,100,0.00,,,0.00,Wunderground v.1.15,2013-03-06 09:44:00,
2013-03-06 04:49:00,27.8,27.8,29.96,WNW,296,4.0,9.0,100,0.00,,,0.00,Wunderground v.1.15,2013-03-06 09:49:00,
2013-03-06 04:54:00,27.9,27.9,29.96,WNW,284,3.0,4.0,100,0.00,,,0.00,Wunderground v.1.15,2013-03-06 09:54:00,
2013-03-06 05:00:00,27.9,27.9,29.96,WNW,288,3.0,3.0,100,0.00,,,0.00,Wunderground v.1.15,2013-03-06 10:00:00,
2013-03-06 05:06:00,28.1,28.1,29.96,North,356,4.0,8.0,100,0.00,,,0.00,Wunderground v.1.15,2013-03-06 10:06:00,
2013-03-06 05:11:00,28.1,28.1,29.96,NW,320,3.0,4.0,100,0.00,,,0.00,Wunderground v.1.15,2013-03-06 10:11:00,
2013-03-06 05:17:00,28.1,28.1,29.97,WNW,285,3.0,5.0,100,0.00,,,0.00,Wunderground v.1.15,2013-03-06 10:17:00,
2013-03-06 05:22:00,28.2,28.2,29.97,West,278,4.0,4.0,100,0.00,,,0.00,Wunderground v.1.15,2013-03-06 10:22:00,
2013-03-06 05:29:00,28.2,28.2,29.97,WNW,301,4.0,5.0,100,0.00,,,0.00,Wunderground v.1.15,2013-03-06 10:29:00,
2013-03-06 05:34:00,28.2,28.2,29.98,NW,311,4.0,6.0,100,0.00,,,0.00,Wunderground v.1.15,2013-03-06 10:34:00,
2013-03-06 05:39:00,28.4,28.4,29.98,WSW,251,4.0,8.0,100,0.00,,,0.00,Wunderground v.1.15,2013-03-06 10:39:00,
2013-03-06 05:45:00,28.5,28.5,29.99,WNW,291,4.0,6.0,100,0.00,,,0.00,Wunderground v.1.15,2013-03-06 10:45:00,
2013-03-06 05:50:00,28.5,28.5,29.99,WNW,282,3.0,3.0,100,0.00,,,0.00,Wunderground v.1.15,2013-03-06 10:50:00,
2013-03-06 05:56:00,28.7,28.7,29.99,West,272,4.0,7.0,100,0.00,,,0.00,Wunderground v.1.15,2013-03-06 10:56:00,
2013-03-06 06:01:00,28.7,28.7,30.00,NW,312,4.0,7.0,100,0.00,,,0.00,Wunderground v.1.15,2013-03-06 11:01:00,
2013-03-06 06:07:00,28.8,28.8,30.00,NW,306,5.0,12.0,100,0.00,,,0.00,Wunderground v.1.15,2013-03-06 11:07:00,
2013-03-06 06:14:00,28.8,28.8,30.00,NNW,328,5.0,6.0,100,0.00,,,0.00,Wunderground v.1.15,2013-03-06 11:14:00,
2013-03-06 06:19:00,29.0,29.0,30.01,NW,308,4.0,8.0,100,0.00,,,0.00,Wunderground v.1.15,2013-03-06 11:19:00,
2013-03-06 06:24:00,29.0,29.0,30.01,West,270,5.0,10.0,100,0.00,,,0.00,Wunderground v.1.15,2013-03-06 11:24:00,
2013-03-06 06:29:00,29.0,29.0,30.02,NNW,328,5.0,10.0,100,0.00,,,0.00,Wunderground v.1.15,2013-03-06 11:29:00,
2013-03-06 06:34:00,29.1,29.1,30.02,West,274,5.0,7.0,100,0.00,,,0.00,Wunderground v.1.15,2013-03-06 11:34:00,
2013-03-06 06:40:00,29.1,29.1,30.02,WNW,302,5.0,5.0,100,0.00,,,0.00,Wunderground v.1.15,2013-03-06 11:40:00,
2013-03-06 06:45:00,29.1,29.1,30.03,NNW,340,4.0,5.0,100,0.00,,,0.00,Wunderground v.1.15,2013-03-06 11:45:00,
2013-03-06 06:51:00,29.3,29.3,30.03,WNW,291,3.0,3.0,100,0.00,,,0.00,Wunderground v.1.15,2013-03-06 11:51:00,
2013-03-06 06:56:00,29.3,29.3,30.03,NW,319,4.0,8.0,100,0.00,,,0.00,Wunderground v.1.15,2013-03-06 11:56:00,
2013-03-06 07:02:00,29.4,29.4,30.04,WNW,289,5.0,11.0,100,0.00,,,0.00,Wunderground v.1.15,2013-03-06 12:02:00,
2013-03-06 07:09:00,29.4,29.4,30.04,NW,316,5.0,11.0,100,0.00,,,0.00,Wunderground v.1.15,2013-03-06 12:09:00,
2013-03-06 07:14:00,29.5,29.5,30.04,NW,313,3.0,5.0,100,0.00,,,0.00,Wunderground v.1.15,2013-03-06 12:14:00,
2013-03-06 07:19:00,29.5,29.5,30.04,NW,315,3.0,7.0,100,0.00,,,0.00,Wunderground v.1.15,2013-03-06 12:19:00,
2013-03-06 07:24:00,29.5,29.5,30.04,NW,315,3.0,3.0,100,0.00,,,0.00,Wunderground v.1.15,2013-03-06 12:24:00,
2013-03-06 07:30:00,29.7,29.7,30.05,West,275,3.0,9.0,100,0.00,,,0.00,Wunderground v.1.15,2013-03-06 12:30:00,
2013-03-06 07:35:00,29.8,29.8,30.05,West,275,4.0,6.0,100,0.00,,,0.00,Wunderground v.1.15,2013-03-06 12:35:00,
2013-03-06 07:41:00,29.8,29.8,30.05,NNE,23,3.0,3.0,100,0.00,,,0.00,Wunderground v.1.15,2013-03-06 12:41:00,
2013-03-06 07:46:00,30.0,30.0,30.06,NW,305,4.0,7.0,100,0.00,,,0.00,Wunderground v.1.15,2013-03-06 12:46:00,
2013-03-06 07:51:00,30.0,30.0,30.06,WNW,302,5.0,5.0,100,0.00,,,0.00,Wunderground v.1.15,2013-03-06 12:51:00,
2013-03-06 07:57:00,30.0,30.0,30.06,WNW,298,3.0,5.0,100,0.00,,,0.00,Wunderground v.1.15,2013-03-06 12:57:00,
2013-03-06 08:03:00,30.1,30.1,30.07,NNW,335,3.0,12.0,100,0.00,,,0.00,Wunderground v.1.15,2013-03-06 13:03:00,
2013-03-06 08:09:00,30.1,30.1,30.07,North,356,3.0,12.0,100,0.00,,,0.00,Wunderground v.1.15,2013-03-06 13:09:00,
2013-03-06 08:14:00,30.1,30.1,30.07,WNW,284,3.0,7.0,100,0.00,,,0.00,Wunderground v.1.15,2013-03-06 13:14:00,
2013-03-06 08:20:00,30.3,30.3,30.07,NW,313,3.0,7.0,100,0.00,,,0.00,Wunderground v.1.15,2013-03-06 13:20:00,
2013-03-06 08:26:00,30.3,30.3,30.07,NW,308,4.0,4.0,100,0.00,,,0.00,Wunderground v.1.15,2013-03-06 13:26:00,
2013-03-06 08:31:00,30.4,30.4,30.08,WNW,302,3.0,5.0,100,0.00,,,0.00,Wunderground v.1.15,2013-03-06 13:31:00,
2013-03-06 08:37:00,30.4,30.4,30.08,NW,326,3.0,7.0,100,0.00,,,0.00,Wunderground v.1.15,2013-03-06 13:37:00,
2013-03-06 08:42:00,30.6,30.6,30.08,NW,305,4.0,6.0,100,0.00,,,0.00,Wunderground v.1.15,2013-03-06 13:42:00,
2013-03-06 08:48:00,30.6,30.6,30.08,North,0,4.0,6.0,100,0.00,,,0.00,Wunderground v.1.15,2013-03-06 13:48:00,
2013-03-06 08:54:00,30.7,30.7,30.08,NNW,336,4.0,4.0,100,0.00,,,0.00,Wunderground v.1.15,2013-03-06 13:54:00,
2013-03-06 08:59:00,30.7,30.7,30.08,NNW,339,3.0,6.0,100,0.00,,,0.00,Wunderground v.1.15,2013-03-06 13:59:00,
2013-03-06 09:04:00,30.9,30.9,30.08,WNW,287,3.0,12.0,100,0.00,,,0.00,Wunderground v.1.15,2013-03-06 14:04:00,
2013-03-06 09:10:00,31.0,31.0,30.08,NW,304,3.0,4.0,100,0.00,,,0.00,Wunderground v.1.15,2013-03-06 14:10:00,
2013-03-06 09:16:00,31.2,31.2,30.09,North,3,3.0,6.0,100,0.00,,,0.00,Wunderground v.1.15,2013-03-06 14:16:00,
2013-03-06 09:21:00,31.3,30.3,30.09,NNE,27,3.0,4.0,96,0.00,,,0.00,Wunderground v.1.15,2013-03-06 14:21:00,
2013-03-06 09:27:00,31.5,30.5,30.09,West,261,4.0,5.0,96,0.00,,,0.00,Wunderground v.1.15,2013-03-06 14:27:00,
2013-03-06 09:33:00,31.6,30.3,30.09,NNW,347,4.0,5.0,95,0.00,,,0.00,Wunderground v.1.15,2013-03-06 14:33:00,
2013-03-06 09:38:00,31.8,30.3,30.09,NW,306,4.0,7.0,94,0.00,,,0.00,Wunderground v.1.15,2013-03-06 14:38:00,
2013-03-06 09:44:00,31.9,30.4,30.09,WNW,292,3.0,5.0,94,0.00,,,0.00,Wunderground v.1.15,2013-03-06 14:44:00,
2013-03-06 09:49:00,32.1,30.8,30.09,WNW,296,3.0,6.0,95,0.00,,,0.00,Wunderground v.1.15,2013-03-06 14:49:00,
2013-03-06 09:55:00,32.1,30.3,30.09,WNW,291,4.0,5.0,93,0.00,,,0.00,Wunderground v.1.15,2013-03-06 14:55:00,
2013-03-06 10:00:00,32.2,30.1,30.09,WNW,288,4.0,7.0,92,0.00,,,0.00,Wunderground v.1.15,2013-03-06 15:00:00,
2013-03-06 10:06:00,32.4,30.1,30.09,NNW,343,4.0,12.0,91,0.00,,,0.00,Wunderground v.1.15,2013-03-06 15:06:00,
2013-03-06 10:12:00,32.4,29.8,30.09,NNW,343,4.0,7.0,90,0.00,,,0.00,Wunderground v.1.15,2013-03-06 15:12:00,
2013-03-06 10:17:00,32.7,30.4,30.10,WNW,287,3.0,7.0,91,0.00,,,0.00,Wunderground v.1.15,2013-03-06 15:17:00,
2013-03-06 10:23:00,32.7,29.8,30.10,NNW,328,3.0,5.0,89,0.00,,,0.00,Wunderground v.1.15,2013-03-06 15:23:00,
2013-03-06 10:28:00,32.8,29.9,30.10,WNW,301,3.0,7.0,89,0.00,,,0.00,Wunderground v.1.15,2013-03-06 15:28:00,
2013-03-06 10:34:00,32.8,29.1,30.10,NW,308,4.0,6.0,86,0.00,,,0.00,Wunderground v.1.15,2013-03-06 15:34:00,
2013-03-06 10:39:00,32.8,28.8,30.10,NW,308,4.0,6.0,85,0.00,,,0.00,Wunderground v.1.15,2013-03-06 15:39:00,
2013-03-06 10:45:00,32.9,28.9,30.11,NW,305,2.0,5.0,85,0.00,,,0.00,Wunderground v.1.15,2013-03-06 15:45:00,
2013-03-06 10:51:00,33.2,30.3,30.11,NNE,17,3.0,3.0,89,0.00,,,0.00,Wunderground v.1.15,2013-03-06 15:51:00,
2013-03-06 10:56:00,33.2,29.2,30.11,North,0,3.0,5.0,85,0.00,,,0.00,Wunderground v.1.15,2013-03-06 15:56:00,
2013-03-06 11:02:00,33.1,29.1,30.12,West,275,4.0,11.0,85,0.00,,,0.00,Wunderground v.1.15,2013-03-06 16:02:00,
2013-03-06 11:08:00,33.1,28.8,30.12,NNW,335,4.0,11.0,84,0.00,,,0.00,Wunderground v.1.15,2013-03-06 16:08:00,
2013-03-06 11:13:00,33.2,28.9,30.12,NW,315,3.0,5.0,84,0.00,,,0.00,Wunderground v.1.15,2013-03-06 16:13:00,
2013-03-06 11:18:00,33.2,28.9,30.12,West,260,3.0,5.0,84,0.00,,,0.00,Wunderground v.1.15,2013-03-06 16:18:00,
2013-03-06 11:24:00,33.1,28.5,30.12,North,352,5.0,5.0,83,0.00,,,0.00,Wunderground v.1.15,2013-03-06 16:24:00,
2013-03-06 11:29:00,33.4,28.8,30.12,NW,311,4.0,5.0,83,0.00,,,0.00,Wunderground v.1.15,2013-03-06 16:29:00,
2013-03-06 11:35:00,33.7,29.1,30.13,West,265,2.0,4.0,83,0.00,,,0.00,Wunderground v.1.15,2013-03-06 16:35:00,
2013-03-06 11:41:00,33.7,28.2,30.13,West,265,2.0,2.0,80,0.00,,,0.00,Wunderground v.1.15,2013-03-06 16:41:00,
2013-03-06 11:46:00,33.5,28.3,30.13,WNW,285,4.0,8.0,81,0.00,,,0.00,Wunderground v.1.15,2013-03-06 16:46:00,
2013-03-06 11:51:00,33.5,28.3,30.13,WNW,291,4.0,6.0,81,0.00,,,0.00,Wunderground v.1.15,2013-03-06 16:51:00,
2013-03-06 11:57:00,33.4,29.4,30.13,SW,234,4.0,6.0,85,0.00,,,0.00,Wunderground v.1.15,2013-03-06 16:57:00,
2013-03-06 12:02:00,33.4,29.4,30.13,West,272,4.0,10.0,85,0.00,,,0.00,Wunderground v.1.15,2013-03-06 17:02:00,
2013-03-06 12:08:00,33.4,28.8,30.13,West,275,5.0,10.0,83,0.00,,,0.00,Wunderground v.1.15,2013-03-06 17:08:00,
2013-03-06 12:14:00,33.5,29.2,30.13,NW,316,5.0,5.0,84,0.00,,,0.01,Wunderground v.1.15,2013-03-06 17:14:00,
2013-03-06 12:19:00,33.7,30.2,30.14,WNW,291,4.0,5.0,87,0.00,,,0.01,Wunderground v.1.15,2013-03-06 17:19:00,
2013-03-06 12:25:00,33.5,29.8,30.14,West,271,4.0,5.0,86,0.00,,,0.01,Wunderground v.1.15,2013-03-06 17:25:00,
2013-03-06 12:31:00,33.2,29.2,30.14,West,274,5.0,6.0,85,0.00,,,0.01,Wunderground v.1.15,2013-03-06 17:31:00,
2013-03-06 12:36:00,33.4,29.4,30.14,West,268,6.0,7.0,85,0.00,,,0.01,Wunderground v.1.15,2013-03-06 17:36:00,
2013-03-06 12:41:00,33.4,29.7,30.14,WSW,257,5.0,5.0,86,0.00,,,0.01,Wunderground v.1.15,2013-03-06 17:41:00,
2013-03-06 12:47:00,33.2,29.5,30.15,WNW,284,6.0,7.0,86,0.00,,,0.02,Wunderground v.1.15,2013-03-06 17:47:00,
2013-03-06 12:52:00,33.2,29.8,30.15,West,261,5.0,7.0,87,0.00,,,0.02,Wunderground v.1.15,2013-03-06 17:52:00,
2013-03-06 12:58:00,33.2,29.2,30.15,WNW,287,5.0,9.0,85,0.07,,,0.03,Wunderground v.1.15,2013-03-06 17:58:00,
2013-03-06 13:03:00,33.4,29.9,30.14,NW,305,5.0,11.0,87,0.07,,,0.03,Wunderground v.1.15,2013-03-06 18:03:00,
2013-03-06 13:09:00,33.5,30.0,30.14,WNW,291,4.0,11.0,87,0.07,,,0.04,Wunderground v.1.15,2013-03-06 18:09:00,
2013-03-06 13:15:00,33.5,29.5,30.14,WNW,291,4.0,8.0,85,0.05,,,0.04,Wunderground v.1.15,2013-03-06 18:15:00,
2013-03-06 13:21:00,33.5,29.8,30.14,West,268,5.0,5.0,86,0.04,,,0.05,Wunderground v.1.15,2013-03-06 18:21:00,
2013-03-06 13:26:00,33.8,30.1,30.14,West,278,4.0,6.0,86,0.04,,,0.05,Wunderground v.1.15,2013-03-06 18:26:00,
2013-03-06 13:32:00,33.8,29.5,30.13,WNW,285,5.0,6.0,84,0.04,,,0.05,Wunderground v.1.15,2013-03-06 18:32:00,
2013-03-06 13:37:00,33.7,29.7,30.13,West,281,6.0,12.0,85,0.04,,,0.05,Wunderground v.1.15,2013-03-06 18:37:00,
2013-03-06 13:43:00,33.8,29.5,30.13,West,268,5.0,9.0,84,0.04,,,0.06,Wunderground v.1.15,2013-03-06 18:43:00,
2013-03-06 13:48:00,33.8,29.2,30.13,WNW,292,5.0,9.0,83,0.04,,,0.06,Wunderground v.1.15,2013-03-06 18:48:00,
2013-03-06 13:54:00,33.8,29.2,30.13,WSW,256,5.0,6.0,83,0.04,,,0.06,Wunderground v.1.15,2013-03-06 18:54:00,
2013-03-06 14:00:00,33.8,29.5,30.13,West,271,6.0,6.0,84,0.04,,,0.07,Wunderground v.1.15,2013-03-06 19:00:00,
2013-03-06 14:05:00,33.8,28.6,30.13,West,272,6.0,12.0,81,0.04,,,0.07,Wunderground v.1.15,2013-03-06 19:05:00,
2013-03-06 14:11:00,33.8,28.9,30.13,WSW,247,6.0,6.0,82,0.04,,,0.08,Wunderground v.1.15,2013-03-06 19:11:00,
2013-03-06 14:17:00,34.1,28.9,30.13,NW,311,5.0,7.0,81,0.04,,,0.08,Wunderground v.1.15,2013-03-06 19:17:00,
2013-03-06 14:22:00,34.1,29.5,30.13,WNW,301,4.0,8.0,83,0.04,,,0.08,Wunderground v.1.15,2013-03-06 19:22:00,
2013-03-06 14:28:00,34.1,29.5,30.13,West,277,5.0,8.0,83,0.04,,,0.09,Wunderground v.1.15,2013-03-06 19:28:00,
2013-03-06 14:33:00,34.1,29.5,30.13,WSW,251,5.0,7.0,83,0.04,,,0.09,Wunderground v.1.15,2013-03-06 19:33:00,
2013-03-06 14:39:00,34.1,29.8,30.13,WNW,292,6.0,7.0,84,0.04,,,0.09,Wunderground v.1.15,2013-03-06 19:39:00,
2013-03-06 14:45:00,34.3,29.7,30.14,West,277,5.0,10.0,83,0.04,,,0.10,Wunderground v.1.15,2013-03-06 19:45:00,
2013-03-06 14:50:00,34.3,29.4,30.14,WNW,282,5.0,5.0,82,0.04,,,0.10,Wunderground v.1.15,2013-03-06 19:50:00,
2013-03-06 14:55:00,34.1,29.5,30.14,West,267,5.0,6.0,83,0.04,,,0.10,Wunderground v.1.15,2013-03-06 19:55:00,
2013-03-06 15:00:00,34.1,29.8,30.14,WNW,287,6.0,9.0,84,0.00,,,0.10,Wunderground v.1.15,2013-03-06 20:00:00,
2013-03-06 15:05:00,34.1,29.8,30.14,WSW,256,6.0,13.0,84,0.00,,,0.11,Wunderground v.1.15,2013-03-06 20:05:00,
2013-03-06 15:11:00,34.1,29.8,30.14,WNW,285,5.0,7.0,84,0.00,,,0.11,Wunderground v.1.15,2013-03-06 20:11:00,
2013-03-06 15:16:00,34.1,29.8,30.14,West,277,5.0,8.0,84,0.00,,,0.11,Wunderground v.1.15,2013-03-06 20:16:00,
2013-03-06 15:22:00,34.1,30.4,30.14,West,280,6.0,6.0,86,0.00,,,0.11,Wunderground v.1.15,2013-03-06 20:22:00,
2013-03-06 15:27:00,34.3,30.0,30.14,WNW,282,5.0,6.0,84,0.00,,,0.11,Wunderground v.1.15,2013-03-06 20:27:00,
2013-03-06 15:33:00,34.3,30.0,30.14,West,280,4.0,5.0,84,0.00,,,0.11,Wunderground v.1.15,2013-03-06 20:33:00,
2013-03-06 15:38:00,34.3,30.3,30.14,WNW,295,5.0,7.0,85,0.00,,,0.11,Wunderground v.1.15,2013-03-06 20:38:00,
2013-03-06 15:44:00,34.4,30.1,30.14,West,272,6.0,6.0,84,0.00,,,0.12,Wunderground v.1.15,2013-03-06 20:44:00,
2013-03-06 15:50:00,34.4,30.1,30.15,WNW,288,5.0,5.0,84,0.00,,,0.12,Wunderground v.1.15,2013-03-06 20:50:00,
2013-03-06 15:55:00,34.6,30.8,30.15,NW,308,3.0,5.0,86,0.00,,,0.12,Wunderground v.1.15,2013-03-06 20:55:00,
2013-03-06 16:01:00,34.6,30.8,30.15,West,268,4.0,12.0,86,0.04,,,0.13,Wunderground v.1.15,2013-03-06 21:01:00,
2013-03-06 16:06:00,34.4,30.6,30.15,WSW,250,5.0,12.0,86,0.04,,,0.13,Wunderground v.1.15,2013-03-06 21:06:00,
2013-03-06 16:12:00,34.4,31.2,30.15,WNW,288,5.0,6.0,88,0.04,,,0.13,Wunderground v.1.15,2013-03-06 21:12:00,
2013-03-06 16:18:00,34.6,31.1,30.15,WNW,288,3.0,6.0,87,0.00,,,0.14,Wunderground v.1.15,2013-03-06 21:18:00,
2013-03-06 16:24:00,34.6,30.8,30.15,WSW,251,3.0,7.0,86,0.00,,,0.14,Wunderground v.1.15,2013-03-06 21:24:00,
2013-03-06 16:29:00,34.6,30.8,30.15,West,272,5.0,7.0,86,0.00,,,0.14,Wunderground v.1.15,2013-03-06 21:29:00,
2013-03-06 16:35:00,34.6,31.4,30.15,WSW,247,5.0,7.0,88,0.00,,,0.14,Wunderground v.1.15,2013-03-06 21:35:00,
2013-03-06 16:40:00,34.4,31.5,30.15,West,270,5.0,7.0,89,0.00,,,0.14,Wunderground v.1.15,2013-03-06 21:40:00,
2013-03-06 16:46:00,34.6,31.7,30.15,West,265,4.0,7.0,89,0.00,,,0.15,Wunderground v.1.15,2013-03-06 21:46:00,
2013-03-06 16:52:00,34.6,31.7,30.15,West,277,3.0,6.0,89,0.00,,,0.15,Wunderground v.1.15,2013-03-06 21:52:00,
2013-03-06 16:58:00,34.4,31.5,30.15,West,275,5.0,6.0,89,0.00,,,0.15,Wunderground v.1.15,2013-03-06 21:58:00,
2013-03-06 17:04:00,34.4,31.2,30.16,West,267,5.0,11.0,88,0.00,,,0.15,Wunderground v.1.15,2013-03-06 22:04:00,
2013-03-06 17:09:00,34.4,31.5,30.16,NNW,337,5.0,11.0,89,0.00,,,0.15,Wunderground v.1.15,2013-03-06 22:09:00,
2013-03-06 17:15:00,34.4,31.5,30.16,West,268,4.0,5.0,89,0.00,,,0.16,Wunderground v.1.15,2013-03-06 22:15:00,
2013-03-06 17:21:00,34.4,31.2,30.16,West,264,3.0,3.0,88,0.00,,,0.16,Wunderground v.1.15,2013-03-06 22:21:00,
2013-03-06 17:26:00,34.4,31.5,30.16,West,278,3.0,3.0,89,0.00,,,0.16,Wunderground v.1.15,2013-03-06 22:26:00,
2013-03-06 17:31:00,34.4,31.8,30.17,WSW,247,3.0,4.0,90,0.00,,,0.16,Wunderground v.1.15,2013-03-06 22:31:00,
2013-03-06 17:36:00,34.4,31.8,30.17,West,274,3.0,6.0,90,0.00,,,0.16,Wunderground v.1.15,2013-03-06 22:36:00,
2013-03-06 17:42:00,34.3,31.9,30.17,WNW,282,2.0,5.0,91,0.00,,,0.16,Wunderground v.1.15,2013-03-06 22:42:00,
2013-03-06 17:47:00,34.3,31.9,30.17,NNW,340,2.0,5.0,91,0.00,,,0.16,Wunderground v.1.15,2013-03-06 22:47:00,
2013-03-06 17:54:00,34.3,32.5,30.17,WNW,285,2.0,3.0,93,0.00,,,0.16,Wunderground v.1.15,2013-03-06 22:54:00,
2013-03-06 17:59:00,34.3,32.5,30.17,WNW,285,1.0,3.0,93,0.00,,,0.16,Wunderground v.1.15,2013-03-06 22:59:00,
2013-03-06 18:04:00,34.1,32.6,30.17,West,270,2.0,5.0,94,0.00,,,0.16,Wunderground v.1.15,2013-03-06 23:04:00,
2013-03-06 18:09:00,34.1,33.1,30.17,West,272,3.0,11.0,96,0.00,,,0.16,Wunderground v.1.15,2013-03-06 23:09:00,
2013-03-06 18:15:00,34.1,32.8,30.17,West,265,4.0,7.0,95,0.00,,,0.16,Wunderground v.1.15,2013-03-06 23:15:00,
2013-03-06 18:20:00,34.1,32.6,30.17,West,265,3.0,3.0,94,0.00,,,0.16,Wunderground v.1.15,2013-03-06 23:20:00,
2013-03-06 18:26:00,34.1,32.8,30.17,West,265,2.0,3.0,95,0.00,,,0.17,Wunderground v.1.15,2013-03-06 23:26:00,
2013-03-06 18:31:00,34.0,33.0,30.18,West,265,2.0,5.0,96,0.00,,,0.17,Wunderground v.1.15,2013-03-06 23:31:00,
2013-03-06 18:37:00,34.0,33.0,30.18,West,265,2.0,5.0,96,0.00,,,0.17,Wunderground v.1.15,2013-03-06 23:37:00,
2013-03-06 18:42:00,34.0,33.2,30.18,West,265,1.0,2.0,97,0.00,,,0.17,Wunderground v.1.15,2013-03-06 23:42:00,
2013-03-06 18:49:00,33.8,33.0,30.18,West,265,1.0,2.0,97,0.00,,,0.17,Wunderground v.1.15,2013-03-06 23:49:00,
2013-03-06 18:54:00,33.8,33.3,30.18,West,265,1.0,1.0,98,0.00,,,0.17,Wunderground v.1.15,2013-03-06 23:54:00,
2013-03-06 18:59:00,33.8,33.5,30.18,West,265,1.0,2.0,99,0.00,,,0.17,Wunderground v.1.15,2013-03-06 23:59:00,
2013-03-06 19:05:00,33.8,33.5,30.18,West,265,1.0,7.0,99,0.00,,,0.17,Wunderground v.1.15,2013-03-07 00:05:00,
2013-03-06 19:11:00,33.8,33.8,30.18,West,265,1.0,1.0,100,0.00,,,0.17,Wunderground v.1.15,2013-03-07 00:11:00,
2013-03-06 19:16:00,33.8,33.8,30.18,West,265,1.0,4.0,100,0.00,,,0.17,Wunderground v.1.15,2013-03-07 00:16:00,
2013-03-06 19:21:00,33.8,33.8,30.18,West,265,1.0,1.0,100,0.00,,,0.17,Wunderground v.1.15,2013-03-07 00:21:00,
2013-03-06 19:27:00,33.7,33.7,30.18,West,265,0.0,1.0,100,0.00,,,0.17,Wunderground v.1.15,2013-03-07 00:27:00,
2013-03-06 19:32:00,33.7,33.7,30.18,West,265,0.0,0.0,100,0.00,,,0.17,Wunderground v.1.15,2013-03-07 00:32:00,
2013-03-06 19:39:00,33.7,33.7,30.18,West,265,0.0,0.0,100,0.00,,,0.17,Wunderground v.1.15,2013-03-07 00:39:00,
2013-03-06 19:44:00,33.5,33.5,30.18,West,265,0.0,0.0,100,0.00,,,0.17,Wunderground v.1.15,2013-03-07 00:44:00,
2013-03-06 19:49:00,33.5,33.5,30.19,West,265,0.0,0.0,100,0.00,,,0.17,Wunderground v.1.15,2013-03-07 00:49:00,
2013-03-06 19:55:00,33.4,33.4,30.19,West,265,0.0,0.0,100,0.00,,,0.17,Wunderground v.1.15,2013-03-07 00:55:00,
2013-03-06 20:00:00,33.4,33.4,30.19,West,265,0.0,0.0,100,0.00,,,0.17,Wunderground v.1.15,2013-03-07 01:00:00,
2013-03-06 20:06:00,33.4,33.4,30.19,West,265,0.0,6.0,100,0.00,,,0.17,Wunderground v.1.15,2013-03-07 01:06:00,
2013-03-06 20:11:00,33.4,33.4,30.19,West,265,0.0,0.0,100,0.00,,,0.17,Wunderground v.1.15,2013-03-07 01:11:00,
2013-03-06 20:16:00,33.2,33.2,30.18,West,265,0.0,0.0,100,0.00,,,0.17,Wunderground v.1.15,2013-03-07 01:16:00,
2013-03-06 20:22:00,33.4,33.4,30.18,West,265,0.0,1.0,100,0.00,,,0.17,Wunderground v.1.15,2013-03-07 01:22:00,
2013-03-06 20:27:00,33.5,33.5,30.18,West,265,0.0,2.0,100,0.00,,,0.17,Wunderground v.1.15,2013-03-07 01:27:00,
2013-03-06 20:34:00,33.5,33.5,30.19,West,265,0.0,0.0,100,0.00,,,0.17,Wunderground v.1.15,2013-03-07 01:34:00,
2013-03-06 20:39:00,33.4,33.4,30.19,West,265,0.0,1.0,100,0.00,,,0.17,Wunderground v.1.15,2013-03-07 01:39:00,
2013-03-06 20:44:00,33.5,33.5,30.19,West,265,0.0,3.0,100,0.00,,,0.17,Wunderground v.1.15,2013-03-07 01:44:00,
2013-03-06 20:49:00,33.5,33.5,30.19,West,265,0.0,3.0,100,0.00,,,0.17,Wunderground v.1.15,2013-03-07 01:49:00,
2013-03-06 20:55:00,33.5,33.5,30.19,West,265,0.0,1.0,100,0.00,,,0.17,Wunderground v.1.15,2013-03-07 01:55:00,
2013-03-06 21:00:00,33.5,33.5,30.20,West,265,1.0,2.0,100,0.00,,,0.17,Wunderground v.1.15,2013-03-07 02:00:00,
2013-03-06 21:06:00,33.5,33.5,30.20,West,265,1.0,3.0,100,0.00,,,0.17,Wunderground v.1.15,2013-03-07 02:06:00,
2013-03-06 21:11:00,33.5,33.5,30.20,West,265,1.0,1.0,100,0.00,,,0.17,Wunderground v.1.15,2013-03-07 02:11:00,
2013-03-06 21:16:00,33.5,33.5,30.20,West,265,1.0,1.0,100,0.00,,,0.17,Wunderground v.1.15,2013-03-07 02:16:00,
2013-03-06 21:21:00,33.4,33.4,30.20,West,265,0.0,3.0,100,0.00,,,0.17,Wunderground v.1.15,2013-03-07 02:21:00,
2013-03-06 21:27:00,33.4,33.4,30.20,West,261,1.0,3.0,100,0.00,,,0.17,Wunderground v.1.15,2013-03-07 02:27:00,
2013-03-06 21:32:00,33.5,33.5,30.20,West,261,2.0,4.0,100,0.00,,,0.17,Wunderground v.1.15,2013-03-07 02:32:00,
2013-03-06 21:39:00,33.5,33.5,30.20,WSW,257,2.0,5.0,100,0.00,,,0.17,Wunderground v.1.15,2013-03-07 02:39:00,
2013-03-06 21:44:00,33.5,33.5,30.20,WNW,301,3.0,5.0,100,0.00,,,0.17,Wunderground v.1.15,2013-03-07 02:44:00,
2013-03-06 21:49:00,33.5,33.5,30.20,WNW,298,3.0,5.0,100,0.00,,,0.17,Wunderground v.1.15,2013-03-07 02:49:00,
2013-03-06 21:54:00,33.5,33.5,30.20,West,260,3.0,6.0,100,0.00,,,0.18,Wunderground v.1.15,2013-03-07 02:54:00,
2013-03-06 22:00:00,33.5,33.5,30.21,NW,304,4.0,7.0,100,0.00,,,0.18,Wunderground v.1.15,2013-03-07 03:00:00,
2013-03-06 22:06:00,33.4,33.4,30.21,West,264,4.0,5.0,100,0.00,,,0.18,Wunderground v.1.15,2013-03-07 03:06:00,
2013-03-06 22:11:00,33.5,33.5,30.21,West,270,2.0,7.0,100,0.00,,,0.18,Wunderground v.1.15,2013-03-07 03:11:00,
2013-03-06 22:17:00,33.5,33.5,30.20,WNW,294,3.0,7.0,100,0.00,,,0.18,Wunderground v.1.15,2013-03-07 03:17:00,
2013-03-06 22:22:00,33.5,33.5,30.20,West,275,3.0,3.0,100,0.00,,,0.18,Wunderground v.1.15,2013-03-07 03:22:00,
2013-03-06 22:29:00,33.5,33.5,30.20,West,275,2.0,5.0,100,0.00,,,0.18,Wunderground v.1.15,2013-03-07 03:29:00,
2013-03-06 22:34:00,33.5,33.5,30.20,WNW,287,2.0,3.0,100,0.00,,,0.18,Wunderground v.1.15,2013-03-07 03:34:00,
2013-03-06 22:40:00,33.7,33.7,30.20,WNW,288,2.0,3.0,100,0.00,,,0.18,Wunderground v.1.15,2013-03-07 03:40:00,
2013-03-06 22:45:00,33.7,33.7,30.20,WNW,288,2.0,3.0,100,0.00,,,0.18,Wunderground v.1.15,2013-03-07 03:45:00,
2013-03-06 22:51:00,33.7,33.7,30.20,WNW,288,2.0,2.0,100,0.00,,,0.18,Wunderground v.1.15,2013-03-07 03:51:00,
2013-03-06 22:56:00,33.8,33.8,30.20,NNW,329,3.0,6.0,100,0.00,,,0.18,Wunderground v.1.15,2013-03-07 03:56:00,
2013-03-06 23:02:00,33.8,33.8,30.21,West,261,4.0,10.0,100,0.00,,,0.18,Wunderground v.1.15,2013-03-07 04:02:00,
2013-03-06 23:07:00,33.8,33.8,30.21,West,280,3.0,10.0,100,0.00,,,0.18,Wunderground v.1.15,2013-03-07 04:07:00,
2013-03-06 23:12:00,33.8,33.8,30.21,WSW,258,4.0,6.0,100,0.00,,,0.18,Wunderground v.1.15,2013-03-07 04:12:00,
2013-03-06 23:17:00,33.8,33.8,30.21,West,271,4.0,7.0,100,0.00,,,0.18,Wunderground v.1.15,2013-03-07 04:17:00,
2013-03-06 23:24:00,33.7,33.7,30.21,West,275,4.0,7.0,100,0.00,,,0.18,Wunderground v.1.15,2013-03-07 04:24:00,
2013-03-06 23:29:00,33.7,33.7,30.21,WSW,258,4.0,7.0,100,0.00,,,0.18,Wunderground v.1.15,2013-03-07 04:29:00,
2013-03-06 23:35:00,33.5,33.5,30.21,NW,313,5.0,8.0,100,0.00,,,0.18,Wunderground v.1.15,2013-03-07 04:35:00,
2013-03-06 23:40:00,33.4,33.4,30.21,WNW,285,6.0,6.0,100,0.00,,,0.18,Wunderground v.1.15,2013-03-07 04:40:00,
2013-03-06 23:46:00,33.4,33.4,30.21,West,272,5.0,10.0,100,0.00,,,0.18,Wunderground v.1.15,2013-03-07 04:46:00,
2013-03-06 23:51:00,33.2,33.2,30.21,WNW,288,5.0,7.0,100,0.00,,,0.18,Wunderground v.1.15,2013-03-07 04:51:00,
2013-03-06 23:57:00,33.2,33.2,30.21,WSW,256,5.0,7.0,100,0.00,,,0.18,Wunderground v.1.15,2013-03-07 04:57:00,